Skip Page Navigation
NASA JPL Caltech
NASA Logo - Jet Propulsion Laboratory + View the NASA Portal
+ Near-Earth Object (NEO) Program
Search JPL
JPL Home Earth Solar System Stars & Galaxies Technology
JPL Solar System Dynamics
BODIES ORBITS EPHEMERIDES TOOLS PHYSICAL DATA DISCOVERY FAQ SITE MAP
JPL Small-Body Database Browser
Search: [ help ]  
1221 Amor (1932 EA1)
Classification: Amor [NEO]          SPK-ID: 2001221
Ephemeris | Orbit Diagram | Orbital Elements | Physical Parameters | Discovery Circumstances | Close-Approach Data ]

[ hide orbit diagram ]
Orbit Diagram
Note: Make sure you have Java enabled on your browser to see the applet. This applet is provided as a 3D orbit visualization tool. The applet was implemented using 2-body methods, and hence should not be used for determining accurate long-term trajectories (over several years or decades) or planetary encounter circumstances. For accurate long-term ephemerides, please instead use our Horizons system.
Orbit Viewer

Additional Notes: the orbits shown in the applet are color coded. The planets are white lines, and the asteroid/comet is a blue line. The bright white line indicates the portion of the orbit that is above the ecliptic plane, and the darker portion is below the ecliptic plane. Likewise for the asteroid/comet orbit, the light blue indicates the portion above the ecliptic plane, and the dark blue the portion below the ecliptic plane.

Orbit Viewer applet originally written and kindly provided by Osamu Ajiki (AstroArts), and further modified by Ron Baalke (JPL).


Orbital Elements at Epoch 2456400.5 (2013-Apr-18.0) TDB
Reference: JPL 50 (heliocentric ecliptic J2000)
 Element Value Uncertainty (1-sigma)   Units 
e .4355437855993322 3.9381e-08  
a 1.918872951565462 1.1363e-09 AU
q 1.083119762156477 7.6081e-08 AU
i 11.87906102371316 7.8886e-06 deg
node 171.3658859769952 2.1301e-05 deg
peri 26.64372272888611 2.9069e-05 deg
M 154.7683485393995 1.2746e-05 deg
tp 2455983.104842506745
(2012-Feb-25.60484251)
3.4122e-05 JED
period 970.8849265088546
2.66
8.6243e-07
2.361e-09
d
yr
n .3707957453768511 3.2937e-10 deg/d
Q 2.754626140974448 1.6313e-09 AU
  Orbit Determination Parameters
   # obs. used (total)      355  
   data-arc span      29457 days (80.65 yr)  
   first obs. used      1932-03-12  
   last obs. used      2012-11-04  
   planetary ephem.      DE405  
   SB-pert. ephem.      SB405-CPV-2  
   condition code      0  
   fit RMS      .85084  
   data source      ORB  
   producer      Otto Matic  
   solution date      2013-Apr-29 15:43:06  

Additional Information
 Earth MOID = .106642 AU 
 T_jup = 3.782 
[ show covariance matrix ]

Ephemeris | Orbit Diagram | Orbital Elements | Physical Parameters | Discovery Circumstances | Close-Approach Data ]

Physical Parameter Table
Parameter Symbol Value Units Sigma Reference Notes
absolute magnitude H 17.7 mag n/a PDS3 (MPC 17261)  
diameter diameter 1.0 km n/a Hazards due to Comets and Asteroids (1994), Ed. T. Gehrels, pp.540-543 based on assumed medium albedo (0.15)

1221 Amor (1932 EA1)          Discovered 1932-Mar-12 by Delporte, E. at Uccle (012)
Reference: DISCOVERY.DBLast Updated: 2003-08-29

[ show close-approach data ]
Ephemeris | Orbit Diagram | Orbital Elements | Physical Parameters | Discovery Circumstances | Close-Approach Data ]
ABOUT SSD CREDITS/AWARDS PRIVACY/COPYRIGHT GLOSSARY LINKS
FirstGov 2013-May-25 01:11 UT
(server date/time)  
NASA Home Page
Site Manager:   Donald K. Yeomans
Webmaster  Alan B. Chamberlin